Regional Weather Roundup
Issued by NWS Newport/Morehead, NC

Current Version | Previous Version | Graphics & Text | Print | Product List | Glossary On
Versions: 1 2 3 4 5 6 7 8 9 10 11 12 13 14 15 16 17 18 19 20 21 22 23 24 25 26 27 28 29 30 31 32 33 34 35 36 37 38 39 40 41 42 43 44 45 46 47 48 49 50
000 ASUS42 KMHX 182213 RWRMHX WEATHER ROUNDUP FOR EASTERN NORTH CAROLINA NATIONAL WEATHER SERVICE NEWPORT/MOREHEAD CITY NC 500 PM EST SAT FEB 18 2017 NOTE: "FAIR" INDICATES FEW OR NO CLOUDS BELOW 12,000 FEET WITH NO SIGNIFICANT WEATHER AND/OR OBSTRUCTIONS TO VISIBILITY NCZ015>017-031-032-045>047-102-103-182300- NORTH COAST CITY SKY/WX TMP DP RH WIND PRES REMARKS EDENTON CLOUDY 67 39 35 SW7 29.88R ELIZABETH CITY PTCLDY 66 39 37 SW14 29.85F KITTY HAWK NOT AVBL MANTEO CLOUDY 58 45 61 SW12 29.88S $$ NCZ045>047-081-094-103-104-182300- CENTRAL COAST CITY SKY/WX TMP DP RH WIND PRES REMARKS FRISCO CLOUDY 63 53 70 SW12 29.92R HAZE $$ NCZ095-097-098-100-101-182300- SOUTHERN COAST CITY SKY/WX TMP DP RH WIND PRES REMARKS BEAUFORT PTCLDY 60 47 61 SW17 29.94S CEDAR ISLAND NOT AVBL JACKSONVILLE CLOUDY 67 42 40 SW10 29.92R HAZE PINEY ISLAND PTCLDY N/A N/A N/A SW16G25 29.93R WILMINGTON MOSUNNY 66 41 40 SW9 29.95S $$ NCZ011>013-027>030-043-044-078>080-089-090>093-098-182300- COASTAL PLAIN CITY SKY/WX TMP DP RH WIND PRES REMARKS AHOSKIE N/A 67 36 31 SW5 29.86S CLINTON CLOUDY 69 39 33 SW9G18 29.93R ELIZABETHTOWN MOSUNNY 69 39 33 SW6 29.93F GOLDSBORO PTSUNNY 70 33 25 SW14 29.89R GREENVILLE PTCLDY 70 36 28 W6 29.90F HAVELOCK MOCLDY 64 40 41 SW17G23 29.93S KENANSVILLE NOT AVBL KINSTON MOSUNNY 70 32 24 SW16 29.91R NEW BERN PTCLDY 67 43 41 S9 29.92R RICHLANDS CLOUDY 69 38 32 SW10 29.93R ROCKY MOUNT PTSUNNY 67 39 35 SW7 29.88S WASHINGTON PTCLDY 69 38 31 SW7 29.89S WHITEVILLE CLOUDY 69 37 31 S8 29.94F $$ AMZ130-135-150-152-154-156-158-170-250-252-270-ANZ085-086-088-633-658-670-182300- MARINE OBSERVATIONS STATION/POSITION TIME TEMP WIND PRES WAVE SWELL AIR SEA DIR/SP/G HT/PER HT/PER (UTC) (F) (DEG/KT/KT) (MB) (FT/S) (FT/S) CHESAPEAKE LIGHT NOT AVBL 64 E VA BEACH 2150 55 52 210/ 17/ 21 1010.0 2/ 5 2/ 8 DUCK 2148 64 47 200/ 12/ 15 1010.4 2 E DUCK 2200 48 N/A 2/10 OREGON INLET 2148 190/ 13/ 15 1011.9 13E OREGON INLT NOT AVBL HATTERAS CG 2148 62 55 220/ 11/ 17 1012.7 DIAMOND BUOY 2150 67 69 220/ 21/ 25 1013.1 4/ 5 2/ 7 CAPE LOOKOUT 2200 60 210/ 12/ 15 1013.8 BEAUFORT LAB 2148 60 51 210/ 12/ 15 1012.9 30 SE NEW RVR IN 2108 64 230/ 17/ 21 1014.7 30 SE NEW RVR IN 2143 65 N/A 4/ 4 27 SE WRIGHTSVLE 2108 61 61 240/ 12/ 16 1014.1 5 SE WRIGHTSVLE 2108 58 56 200/ 12/ 19 1014.5 225 S CAPE HAT 2150 70 71 220/ 17/ 19 1017.2 4/ 6 2/10 41 SE CHARLESTON 2150 66 69 230/ 12/ 16 1014.6 2/ 9 2/ 9 $$

USA.gov is the U.S. government's official web portal to all federal, state and local government web resources and services.